sat.trackr.live / text

‹ back to catalog

STARLINK-36421

NORAD 67464 · 2026-008V

PAYLOAD ACTIVE UNKNOWN

§ Identity

Operator
Country
US
Launch date
2026-01-14
Launch site
AFETR
Launch vehicle
Mass (kg)
RCS (m²)

Purposes: comms

External: N2YO · Heavens-Above · Gunter

§ Orbital elements

Epoch: 2026-09-19T03:39:07.303104Z

Period
94.27 min
Inclination
42.9979°
Eccentricity
0.0002334
Mean motion
15.27586460 rev/d
Perigee alt
481.4 km
Apogee alt
484.6 km
Semi-major
6,861.2 km
B*
5.4556e-4
RAAN
192.3174°
Arg perigee
249.0045°
Mean anomaly
111.0557°
Rev number
3,916

§ Raw data

STARLINK-364211 67464U 26008V   26262.15216786  .00014784  00000+0  54556-3 0  99982 67464  42.9979 192.3174 0002334 249.0045 111.0557 15.27586460 39165

JSON: /api/v1/satellites/67464 · /tle

For live sub-satellite position, see the globe view (requires WebGL).

§ Visibility from observer

Set your observer location to see the next 7 days of passes ≥ 10°. The values pass through the URL so the page stays shareable.

No JS? Fill the form by hand. The geolocation button needs JavaScript.